DECAYED

CZ-6A DEB, 54585 (Decayed)

Orbit data source: Space-Track

CZ-6A DEB, 54585 was space debris in SSO originally from a launch on Fri, 11 Nov 2022 UTC launched from the Taiyaun Space Center, China (TSC). Debris objects in space refer to the collection of defunct objects orbiting the Earth. Examples of debris include non-operational satellites, rocket bodies, and fragments generated from explosions, collisions, or faulty payload assembly.

Not visible in the next 10 days
Identifier
54585, 2022-151MM
Orbit
Decayed
Country
Flag of CNCN / PRC
Related business
Manufacturer
SAST
Mission
Decayed spacecraft
Bus & Motor
Unknown
Mass
Unknown
Launch date (UTC)
2022-11-11 (4 years ago)
Launch vehicle
Unknown
Launch site
Taiyaun Space Center, China (TSC)
Object type
Payload
Rocket body
Debris
Shape & HBR
Unknown shape, 0.1 m
Radar Cross Section
Medium (>0.1 m² and <1 m²)

Expand to show TLE details & history
Last TLE update: 1 month ago

TLE from 1 month ago
0 CZ-6A DEB
1 54585U 22151MM  26204.22433288  .13081154  31613-5  10557-1 0  9995
2 54585  98.5938 305.1524 0022259 292.3240  67.5682 16.13661096125790
Epoch: 2026-07-23T05:23Z
TLE epoch observation values (Epoch: 2026-07-23T05:23:02.360Z)
Latitude
-0.00006°
Longitude
-76.57581°
Altitude
234.405 km
Speed
7.769 km/s
True Right ascension
20h 20m 36s
True Declination
0° 00' 00"
Sunlit
Object was in full shadow at epoch
Visualization orbit readout
Latitude
Unknown
Longitude
Unknown
Altitude
Unknown
Speed
Unknown
Apparent Right ascension
Unknown
Apparent Declination
Unknown
Sunlit
N/A
Visualization observer readout
Local Sidereal Time
00:23:32
Azimuth
Unknown
Elevation
Unknown
Doppler factor
Unknown
Orbital elements
Apogee altitude
248.435 km
Perigee altitude
219.001 km
Semi-major axis
6,611.855 km
Eccentricity
0.00223
Inclination
98.5938°
RAAN
305.1524°
Arg. of periapsis
292.324°
True anomaly
67.80422°
Mean anomaly
67.5682°
Eccentric anomaly
67.68618°
Mean motion
4.03699 °/min
Orbital period
89.18 mins
BSTAR
0.010557
Loading maneuver chart data...
Computing Atmospheric mass density...
Loading historical data...
Loading historical data...
Loading historical data...
Loading historical data...
Loading historical data...
Loading historical data...
Loading historical data...

Documentation

Showing up to 5 results
|